www.pogodaiklimat.ru

Погода и климат >> Архив погоды >> Россия >> Чукотка >> Чаун


ПОГОДА в Чауне

  • Прогноз погоды в Чауне
  • Монитор погоды в Чауне

АРХИВ ПОГОДЫ в Чауне

Время (UTC), дата Ветер
(напр.,м/с)
 
Видим.   Явления Облачность Т
(С)
Тd
(С)
f
(%)
Тe
(С)
Тes
(С)
Комфортность P
(гПа)
Po
(гПа)
Тmin
(С)
Tmax
(С)
R
(мм)
R24
(мм)
S
(см)
06 19.08 Ю 1
{5}
20 км 9/0
[Ac lent Ci fib]
+15.0 +9.2 68 +16 +16 1025.6 1025.0
09 19.08 СВ 2
{3}
50 км 6/0
[Ac lent Ci fib]
+10.6 +9.2 91 +9 +9 1026.0 1025.4 +15.2
12 19.08 В 2
{4}
50 км 4/0
[Ac lent Ci fib]
+8.3 +7.0 92 +6 +6 1026.2 1025.6
15 19.08 ЮВ 2
{4}
500 м туман 3/0
[Ac lent Ci fib]
+6.4 +6.2 99 +4 +4 1026.4 1025.8
18 19.08 ЮВ 3
{5}
500 м туман 4/0
[Ac lent Ci fib]
+6.3 +6.1 99 +3 +3 1026.7 1026.1
21 19.08 ЮВ 4
{5}
20 км {туман} 3/0
[Ci fib]
+10.0 +9.2 95 +7 +9 1026.6 1026.0 +5.2
00 20.08 ЮВ 4
{7}
50 км {туман} ясно +15.3 +9.3 67 +14 +19 1025.6 1025.0
03 20.08 ЮВ 5
{7}
50 км ясно +17.5 +8.8 57 +17 +20 1024.4 1023.8
06 20.08 ЮВ 4
{7}
50 км 3/0
[Ci fib]
+17.4 +9.7 61 +17 +18 1023.2 1022.6
09 20.08 В 4
{6}
50 км ясно +11.5 +9.5 88 +9 +9 1022.5 1021.9 +18.0
12 20.08 ЮВ 5
{7}
50 км 3/0
[Ci fib]
+9.8 +8.0 89 +7 +7 1021.6 1021.0
15 20.08 ЮВ 4
{6}
50 км 3/0
[Ci fib]
+8.5 +7.3 92 +5 +5 1020.4 1019.8
18 20.08 ЮВ 4
{6}
50 км 4/0
[Ci fib]
+9.0 +7.7 92 +6 +6 1019.8 1019.2
21 20.08 ЮВ 5
{7}
50 км 9/0
[Cc]
+13.2 +8.8 75 +11 +13 1018.8 1018.2 +8.3
00 21.08 Ю 3
{6}
50 км 9/0
[Ac trans Ci fib]
+17.7 +9.8 60 +18 +21 1017.6 1017.0
03 21.08 СЗ 3
{5}
50 км 8/0
[Ci fib]
+17.6 +11.5 67 +18 +21 1016.2 1015.6
06 21.08 СЗ 5
{6}
50 км 9/0
[Ci fib]
+13.0 +10.3 84 +11 +11 1015.6 1015.0
09 21.08 СЗ 5
{7}
50 км 9/0
[Ac lent Ci fib]
+10.8 +9.7 93 +8 +8 1015.5 1014.9 +19.3
12 21.08 СЗ 7
{9}
20 км 9/0
[Ci fib]
+9.6 +8.8 95 +6 +6 1016.0 1015.4
15 21.08 СЗ 8-10
{11}
500 м туман 9/0
[Ci fib]
+7.2 +7.0 99 +2 +2 1016.1 1015.5
18 21.08 СЗ 9-12
{12}
500 м туман ?/? +6.7 +6.7 100 +1 +1 1017.2 1016.6
21 21.08 СЗ 8-10
{12}
20 км {туман} 10/10 120 м
[St]
+6.3 +5.2 93 +1 +1 1018.5 1017.9 +6.2
00 22.08 СЗ 8-11
{12}
4000 м дымка {туман} 10/10 90 м
[St]
+5.1 +4.2 94 -1 -1 1020.0 1019.4 +5.0
03 22.08 СЗ 8-10
{12}
20 км 10/10 180 м
[St]
+6.5 +5.1 91 +1 +1 1020.9 1020.3
06 22.08 СЗ 7
{11}
20 км 10/10 500 м
[Sc]
+6.9 +5.3 90 +2 +2 1021.8 1021.2
09 22.08 СЗ 5
{9}
20 км 10/10 180 м
[St]
+6.9 +5.6 91 +3 +3 1022.7 1022.1 +7.1
12 22.08 З 3
{7}
20 км 10/10 180 м
[St]
+7.3 +6.2 93 +4 +4 1023.1 1022.5
15 22.08 СЗ 3
{5}
20 км 10/10 210 м
[St]
+7.4 +6.2 92 +4 +4 1023.4 1022.8
18 22.08 З 3
{5}
20 км 10/10 270 м
[St]
+7.8 +6.2 90 +5 +5 1023.8 1023.2
21 22.08 ЮЗ 2
{5}
20 км 10/10 270 м
[St]
+8.4 +5.8 84 +7 +7 1024.3 1023.7 +6.8
00 23.08 ЮЗ 2
{4}
20 км 10/10 360 м
[St]
+9.5 +6.2 80 +8 +8 1024.0 1023.4
03 23.08 СЗ 2
{4}
50 км 6/4 200 м
[St Ac trans]
+9.6 +6.4 80 +8 +10 1023.1 1022.5
06 23.08 С 2
{6}
50 км 4/0
[Ac trans]
+10.0 +6.1 77 +9 +9 1021.6 1021.0
09 23.08 СВ 2
{4}
50 км 3/0
[Ac trans]
+7.2 +5.9 91 +5 +5 1020.8 1020.2 +10.2
12 23.08 ЮВ 2
{3}
20 км 3/0
[Ac trans]
+5.2 +4.3 94 +2 +2 1019.8 1019.2
15 23.08 В 4
{5}
20 км 3/0
[Ac lent]
+4.3 +3.1 92 -0 -0 1018.5 1017.9
18 23.08 ЮВ 3
{5}
50 км 3/0
[Ac lent]
+3.8 +2.8 93 -0 0 1017.1 1016.5
21 23.08 ЮВ 5
{7}
50 км 9/0
[Ci fib]
+9.6 +6.4 80 +6 +8 1015.4 1014.8 +2.9
00 24.08 ЮВ 4
{7}
50 км 9/0
[Ci fib]
+15.6 +6.7 55 +15 +18 1013.6 1013.0
03 24.08 Ю 2
{6}
50 км 9/0
[Ci fib]
+18.3 +5.6 43 +19 +23 1011.5 1010.9
06 24.08 С 2
{4}
50 км 9/0
[Ac trans Ci fib]
+14.2 +9.2 72 +14 +14 1010.6 1010.0
09 24.08 СВ 2
{4}
50 км 9/4 600 м
[Sc Ac trans Ci fib]
+10.9 +8.9 87 +10 +10 1010.0 1009.4 +18.6
12 24.08 СВ 1
{2}
4000 м дымка 9/5 600 м
[Sc Ci fib]
+9.9 +9.5 97 +9 +9 1008.9 1008.3
15 24.08 С 1
{3}
4000 м дымка 9/0
[Ci fib]
+8.1 +7.9 99 +7 +7 1008.4 1007.8
18 24.08 В 2
{3}
4000 м дымка 10/0
[Ac und]
+8.1 +7.9 99 +6 +6 1007.8 1007.2
21 24.08 В 2
{4}
20 км 8/0
[Ac trans]
+12.0 +8.6 80 +11 +13 1007.4 1006.8 +7.4
00 25.08 ЮВ 4
{6}
20 км ясно +16.5 +9.2 62 +16 +20 1006.8 1006.2
03 25.08 ЮВ 1
{5}
20 км 3/0
[Ci fib]
+19.7 +9.5 52 +22 +27 комфорт 1005.9 1005.3
06 25.08 С 3
{5}
20 км 8/0
[Ac trans Ci fib]
+16.5 +10.9 69 +16 +17 1005.1 1004.5
09 25.08 В 2
{4}
20 км 9/0
[Ac trans Ci fib]
+12.2 +10.9 92 +11 +11 1004.8 1004.2 +19.7
12 25.08 ЮВ 3
{4}
20 км 9/0
[Ac trans Ci fib]
+10.2 +9.0 92 +8 +8 1004.3 1003.7
15 25.08 ЮВ 3
{5}
20 км 9/0
[Ac trans Ci fib]
+9.7 +8.2 90 +7 +7 1003.7 1003.1
18 25.08 ЮВ 4
{6}
20 км 9/0
[Ac trans Ci fib]
+10.9 +9.5 91 +8 +8 1002.7 1002.1
21 25.08 Ю 4
{8}
20 км 9/0
[]
+14.2 +12.0 87 +13 +14 1002.6 1002.0 +9.2
00 26.08 З 2
{6}
20 км 9/0
[Ac trans Ci fib]
+18.2 +12.1 68 +19 +22 1002.5 1001.9
03 26.08 С 3
{5}
50 км 6/0
[Ac trans]
+18.2 +12.3 68 +19 +21 1002.3 1001.7

 

Местоположение метеостанции Чаун (Чукотка, Россия): широта 68.88 долгота 170.70 высота над уровнем моря 5 м.

В архиве по умолчанию представлена погода в Чауне за последнюю неделю. Архивные данные за месяц целиком и за предыдущие месяцы, начиная с января 2011 года, Вы можете получить, выбрав интересующий диапазон дат из раскрывающегося списка и нажав кнопку "Ввод!".


*Определитесь, кто Вы:
робот инопланетянин человек

Внимание! Время в таблицах - всемирное. Для получения местного времени необходимо прибавить поправку, которая равна 12 ч.

Смотрите также архив погоды в соседних городах и на ближайших метеорологических станциях:

Погода на 21 км (Чукотка, Россия) (84 км)
Погода в Комсомольской (Чукотка, Россия) (89 км)
Погода в Певеке (Чукотка, Россия) (93 км)
Погода в Майской (Чукотка, Россия) (117 км)
Погода в Валькаркае (Чукотка, Россия) (134 км)
Погода в Паляваам-Глубокой (Чукотка, Россия) (137 км)
Погода на Айон Острове (Чукотка, Россия) (160 км)
Погода в Раучуе (Чукотка, Россия) (180 км)
Погода в Билибино (Чукотка, Россия) (198 км)
Погода в Илирнее (Чукотка, Россия) (215 км)

Пояснения к столбцам:

Ветер - указаны скорость ветра в м/с - средняя за 10 мин, порывы в срок и между сроками (в фигурных скобках) и направление, откуда дует ветер: С - северный, СВ - северо-восточный, В - восточный, ЮВ - юго-восточный, Ю - южный, ЮЗ - юго-западный, З - западный, СЗ - северо-западный.
Видимость - горизонтальная дальность видимости в метрах или километрах. При видимости от 1 до 10 км при отсутствии осадков обычно наблюдается дымка, при ухудшении видимости до 1 км и менее - туман. В сухую погоду видимость может ухудшаться дымом, пылью или мглою.
Явления - указаны атмосферные явления, наблюдавшиеся в срок или в последний час перед сроком; фигурными скобками обозначены явления, наблюдавшиеся между сроками (за 1-3 часа до срока); квадратными скобками обозначены град или гололедные отложения с указанием их диаметра в мм.
Облачность - указаны через наклонную черту общая и нижняя облачность в баллах и высота нижней границы облаков в метрах; квадратными скобками обозначены формы облаков: Ci - перистые, Cs - перисто-слоистые, Cc - перисто-кучевые, Ac - высококучевые, As - высокослоистые, Sc - слоисто-кучевые, Ns - слоисто-дождевые, Cu - кучевые, Cb - кучево-дождевые. Подробнее классификацию облаков см. в Атласе облаков (PDF).
T - Температура воздуха - температура, измеренная на высоте 2 м над землей.
Td - Температура точки росы - температура, при понижении до которой содержащийся в воздухе водяной пар достигнет насыщения.
f - Относительная влажность воздуха - влажноcть воздуха, измеренная на высоте 2 м над землей.
Te - Эффективная температура - температура, которую ощущает одетый по сезону человек в тени. Характеристика душности погоды. При расчете учитывается влияние влажности воздуха и скорости ветра на теплоощущения человека.
Tes - Эффективная температура на солнце - температура, которую ощущает человек, с поправкой на солнечный нагрев. Характеристика знойности погоды. Зависит от высоты солнца над горизонтом, облачности и скорости ветра. Ночью, в пасмурную погоду, а также при ветре 12 м/с и более поправка равна нулю.
P - Атмосферное давление - приведенное к уровню моря атмосферное давление.
Po - Атмосферное давление - измеренное на уровне метеостанции атмосферное давление.
Tmin - Минимальная температура - минимум температуры воздуха на высоте 2 м над землей.
Tmax - Максимальная температура - максимум температуры воздуха на высоте 2 м над землей.
R - Количество осадков - Количество выпавших осадков за период времени, мм. При наведении курсора мыши на число - период времени, за который выпало указанное количество осадков.
R24 - Количество осадков - Количество выпавших осадков за 24 часа, мм.
S - Снежный покров - Высота снежного покрова, см. При наведении курсора мыши на число - состояние снежного покрова и степень покрытия местности в баллах.